Time,TemperatureF,DewpointF,PressureIn,WindDirection,WindDirectionDegrees,WindSpeedMPH,WindSpeedGustMPH,Humidity,HourlyPrecipIn,Conditions,Clouds,dailyrainin,SoftwareType,DateUTC
2013-02-11 00:02:00,10.0,-99.9,-100.00,North,-999,-999.0,-999.0,-999,0.00,,,0.00,,2013-02-11 05:02:00,
2013-02-11 00:12:00,10.0,-99.9,-100.00,North,-999,-999.0,-999.0,-999,0.00,,,0.00,,2013-02-11 05:12:00,
2013-02-11 00:22:00,10.0,-99.9,-100.00,North,-999,-999.0,-999.0,-999,0.00,,,0.00,,2013-02-11 05:22:00,
2013-02-11 00:30:00,11.0,-99.9,-100.00,North,-999,-999.0,-999.0,-999,0.00,,,0.00,,2013-02-11 05:30:00,
2013-02-11 00:53:00,11.0,-99.9,-100.00,North,-999,-999.0,-999.0,-999,0.00,,,0.00,,2013-02-11 05:53:00,
2013-02-11 01:02:00,11.0,-99.9,-100.00,North,-999,-999.0,-999.0,-999,0.00,,,0.00,,2013-02-11 06:02:00,
2013-02-11 01:12:00,11.0,-99.9,-100.00,North,-999,-999.0,-999.0,-999,0.00,,,0.00,,2013-02-11 06:12:00,
2013-02-11 01:22:00,11.0,-99.9,-100.00,North,-999,-999.0,-999.0,-999,0.00,,,0.00,,2013-02-11 06:22:00,
2013-02-11 01:30:00,12.0,-99.9,-100.00,North,-999,-999.0,-999.0,-999,0.00,,,0.00,,2013-02-11 06:30:00,
2013-02-11 02:02:00,12.0,-99.9,-100.00,North,-999,-999.0,-999.0,-999,0.00,,,0.00,,2013-02-11 07:02:00,
2013-02-11 02:12:00,12.0,-99.9,-100.00,North,-999,-999.0,-999.0,-999,0.00,,,0.00,,2013-02-11 07:12:00,
2013-02-11 02:22:00,12.0,-99.9,-100.00,North,-999,-999.0,-999.0,-999,0.00,,,0.00,,2013-02-11 07:22:00,
2013-02-11 02:52:00,13.0,-99.9,-100.00,North,-999,-999.0,-999.0,-999,0.00,,,-99.99,,2013-02-11 07:52:00,
2013-02-11 03:02:00,13.0,-99.9,-100.00,North,-999,-999.0,-999.0,-999,0.00,,,-99.99,,2013-02-11 08:02:00,
2013-02-11 03:11:00,13.0,-99.9,-100.00,North,-999,-999.0,-999.0,-999,0.00,,,-99.99,,2013-02-11 08:11:00,
2013-02-11 03:22:00,14.0,-99.9,-100.00,North,-999,-999.0,-999.0,-999,0.00,,,0.00,,2013-02-11 08:22:00,
2013-02-11 03:32:00,14.0,-99.9,-100.00,North,-999,-999.0,-999.0,-999,0.00,,,0.00,,2013-02-11 08:32:00,
2013-02-11 03:43:00,14.0,-99.9,-100.00,North,-999,-999.0,-999.0,-999,0.00,,,0.00,,2013-02-11 08:43:00,
2013-02-11 03:52:00,15.0,-99.9,-100.00,North,-999,-999.0,-999.0,-999,0.00,,,0.00,,2013-02-11 08:52:00,
2013-02-11 04:02:00,15.0,-99.9,-100.00,North,-999,-999.0,-999.0,-999,0.00,,,0.00,,2013-02-11 09:02:00,
2013-02-11 04:12:00,15.0,-99.9,-100.00,North,-999,-999.0,-999.0,-999,0.00,,,0.00,,2013-02-11 09:12:00,
2013-02-11 04:22:00,15.0,-99.9,-100.00,North,-999,-999.0,-999.0,-999,0.00,,,0.00,,2013-02-11 09:22:00,
2013-02-11 04:30:00,17.0,-99.9,-100.00,North,-999,-999.0,-999.0,-999,0.00,,,0.00,,2013-02-11 09:30:00,
2013-02-11 04:52:00,17.0,-99.9,-100.00,North,-999,-999.0,-999.0,-999,0.00,,,0.00,,2013-02-11 09:52:00,
2013-02-11 05:02:00,17.0,-99.9,-100.00,North,-999,-999.0,-999.0,-999,0.00,,,0.00,,2013-02-11 10:02:00,
2013-02-11 05:11:00,17.0,-99.9,-100.00,North,-999,-999.0,-999.0,-999,0.00,,,0.00,,2013-02-11 10:11:00,
2013-02-11 05:22:00,17.0,-99.9,-100.00,North,-999,-999.0,-999.0,-999,0.00,,,0.00,,2013-02-11 10:22:00,
2013-02-11 05:30:00,19.0,-99.9,-100.00,North,-999,-999.0,-999.0,-999,0.00,,,0.00,,2013-02-11 10:30:00,
2013-02-11 05:52:00,19.0,-99.9,-100.00,North,-999,-999.0,-999.0,-999,0.00,,,0.00,,2013-02-11 10:52:00,
2013-02-11 06:02:00,19.0,-99.9,-100.00,North,-999,-999.0,-999.0,-999,0.00,,,0.00,,2013-02-11 11:02:00,
2013-02-11 06:11:00,19.0,-99.9,-100.00,North,-999,-999.0,-999.0,-999,0.00,,,0.00,,2013-02-11 11:11:00,
2013-02-11 06:22:00,19.0,-99.9,-100.00,North,-999,-999.0,-999.0,-999,0.00,,,0.00,,2013-02-11 11:22:00,
2013-02-11 06:30:00,21.0,-99.9,-100.00,North,-999,-999.0,-999.0,-999,0.00,,,0.00,,2013-02-11 11:30:00,
2013-02-11 06:53:00,21.0,-99.9,-100.00,North,-999,-999.0,-999.0,-999,0.00,,,0.00,,2013-02-11 11:53:00,
2013-02-11 07:03:00,21.0,-99.9,-100.00,North,-999,-999.0,-999.0,-999,0.00,,,0.00,,2013-02-11 12:03:00,
2013-02-11 07:12:00,21.0,-99.9,-100.00,North,-999,-999.0,-999.0,-999,0.00,,,0.00,,2013-02-11 12:12:00,
2013-02-11 07:22:00,21.0,-99.9,-100.00,North,-999,-999.0,-999.0,-999,0.00,,,0.00,,2013-02-11 12:22:00,
2013-02-11 07:53:00,23.0,-99.9,-100.00,North,-999,-999.0,-999.0,-999,0.00,,,0.00,,2013-02-11 12:53:00,
2013-02-11 08:02:00,23.0,-99.9,-100.00,North,-999,-999.0,-999.0,-999,0.00,,,0.00,,2013-02-11 13:02:00,
2013-02-11 08:12:00,23.0,-99.9,-100.00,North,-999,-999.0,-999.0,-999,0.00,,,0.00,,2013-02-11 13:12:00,
2013-02-11 08:22:00,23.0,-99.9,-100.00,North,-999,-999.0,-999.0,-999,0.00,,,0.00,,2013-02-11 13:22:00,
2013-02-11 08:53:00,26.0,-99.9,-100.00,North,-999,-999.0,-999.0,-999,0.02,,,0.02,,2013-02-11 13:53:00,
2013-02-11 09:02:00,26.0,-99.9,-100.00,North,-999,-999.0,-999.0,-999,0.02,,,0.02,,2013-02-11 14:02:00,
2013-02-11 09:12:00,26.0,-99.9,-100.00,North,-999,-999.0,-999.0,-999,0.02,,,0.02,,2013-02-11 14:12:00,
2013-02-11 09:22:00,28.0,-99.9,-100.00,North,-999,-999.0,-999.0,-999,0.00,,,0.02,,2013-02-11 14:22:00,
2013-02-11 09:30:00,29.0,-99.9,-100.00,North,-999,-999.0,-999.0,-999,0.01,,,0.03,,2013-02-11 14:30:00,
2013-02-11 09:33:00,28.0,-99.9,-100.00,North,-999,-999.0,-999.0,-999,0.00,,,0.02,,2013-02-11 14:33:00,
2013-02-11 09:43:00,28.0,-99.9,-100.00,North,-999,-999.0,-999.0,-999,0.00,,,0.02,,2013-02-11 14:43:00,
2013-02-11 09:53:00,29.0,-99.9,-100.00,North,-999,-999.0,-999.0,-999,0.01,,,0.03,,2013-02-11 14:53:00,
2013-02-11 10:02:00,29.0,-99.9,-100.00,North,-999,-999.0,-999.0,-999,0.01,,,0.03,,2013-02-11 15:02:00,
2013-02-11 10:12:00,29.0,-99.9,-100.00,North,-999,-999.0,-999.0,-999,0.01,,,0.03,,2013-02-11 15:12:00,
2013-02-11 10:22:00,29.0,-99.9,-100.00,North,-999,-999.0,-999.0,-999,0.01,,,0.03,,2013-02-11 15:22:00,
2013-02-11 10:30:00,32.0,-99.9,-100.00,North,-999,-999.0,-999.0,-999,0.03,,,0.06,,2013-02-11 15:30:00,
2013-02-11 10:53:00,32.0,-99.9,-100.00,North,-999,-999.0,-999.0,-999,0.03,,,0.06,,2013-02-11 15:53:00,
2013-02-11 11:03:00,32.0,-99.9,-100.00,North,-999,-999.0,-999.0,-999,0.03,,,0.06,,2013-02-11 16:03:00,
2013-02-11 11:12:00,32.0,-99.9,-100.00,North,-999,-999.0,-999.0,-999,0.03,,,0.06,,2013-02-11 16:12:00,
2013-02-11 11:30:00,34.0,-99.9,-100.00,North,-999,-999.0,-999.0,-999,0.04,,,0.10,,2013-02-11 16:30:00,
2013-02-11 11:53:00,34.0,-99.9,-100.00,North,-999,-999.0,-999.0,-999,0.04,,,0.10,,2013-02-11 16:53:00,
2013-02-11 12:02:00,34.0,-99.9,-100.00,North,-999,-999.0,-999.0,-999,0.04,,,0.10,,2013-02-11 17:02:00,
2013-02-11 12:12:00,34.0,-99.9,-100.00,North,-999,-999.0,-999.0,-999,0.04,,,0.10,,2013-02-11 17:12:00,
2013-02-11 12:22:00,34.0,-99.9,-100.00,North,-999,-999.0,-999.0,-999,0.04,,,0.10,,2013-02-11 17:22:00,
2013-02-11 12:30:00,38.0,-99.9,-100.00,North,-999,-999.0,-999.0,-999,0.07,,,0.17,,2013-02-11 17:30:00,
2013-02-11 12:53:00,38.0,-99.9,-100.00,North,-999,-999.0,-999.0,-999,0.07,,,0.17,,2013-02-11 17:53:00,
2013-02-11 13:02:00,38.0,-99.9,-100.00,North,-999,-999.0,-999.0,-999,0.07,,,0.17,,2013-02-11 18:02:00,
2013-02-11 13:12:00,38.0,-99.9,-100.00,North,-999,-999.0,-999.0,-999,0.07,,,0.17,,2013-02-11 18:12:00,
2013-02-11 13:22:00,38.0,-99.9,-100.00,North,-999,-999.0,-999.0,-999,0.07,,,0.17,,2013-02-11 18:22:00,
2013-02-11 13:30:00,44.0,-99.9,-100.00,North,-999,-999.0,-999.0,-999,0.02,,,0.19,,2013-02-11 18:30:00,
2013-02-11 14:02:00,44.0,-99.9,-100.00,North,-999,-999.0,-999.0,-999,0.02,,,0.19,,2013-02-11 19:02:00,
2013-02-11 14:12:00,44.0,-99.9,-100.00,North,-999,-999.0,-999.0,-999,0.02,,,0.19,,2013-02-11 19:12:00,
2013-02-11 14:22:00,44.0,-99.9,-100.00,North,-999,-999.0,-999.0,-999,0.02,,,0.19,,2013-02-11 19:22:00,
2013-02-11 14:52:00,46.0,-99.9,-100.00,North,-999,-999.0,-999.0,-999,0.00,,,0.19,,2013-02-11 19:52:00,
2013-02-11 15:02:00,46.0,-99.9,-100.00,North,-999,-999.0,-999.0,-999,0.00,,,0.19,,2013-02-11 20:02:00,
2013-02-11 15:22:00,45.0,-99.9,-100.00,North,-999,-999.0,-999.0,-999,0.00,,,0.19,,2013-02-11 20:22:00,
2013-02-11 15:30:00,45.0,-99.9,-100.00,North,-999,-999.0,-999.0,-999,0.00,,,0.19,,2013-02-11 20:30:00,
2013-02-11 15:32:00,45.0,-99.9,-100.00,North,-999,-999.0,-999.0,-999,0.00,,,0.19,,2013-02-11 20:32:00,
2013-02-11 15:42:00,45.0,-99.9,-100.00,North,-999,-999.0,-999.0,-999,0.00,,,0.19,,2013-02-11 20:42:00,
2013-02-11 15:53:00,45.0,-99.9,-100.00,North,-999,-999.0,-999.0,-999,0.00,,,0.19,,2013-02-11 20:53:00,
2013-02-11 16:03:00,45.0,-99.9,-100.00,North,-999,-999.0,-999.0,-999,0.00,,,0.19,,2013-02-11 21:03:00,
2013-02-11 16:12:00,45.0,-99.9,-100.00,North,-999,-999.0,-999.0,-999,0.00,,,0.19,,2013-02-11 21:12:00,
2013-02-11 16:22:00,45.0,-99.9,-100.00,North,-999,-999.0,-999.0,-999,0.00,,,0.19,,2013-02-11 21:22:00,
2013-02-11 17:02:00,45.0,-99.9,-100.00,North,-999,-999.0,-999.0,-999,0.00,,,0.19,,2013-02-11 22:02:00,
2013-02-11 17:12:00,45.0,-99.9,-100.00,North,-999,-999.0,-999.0,-999,0.00,,,0.19,,2013-02-11 22:12:00,
2013-02-11 17:22:00,45.0,-99.9,-100.00,North,-999,-999.0,-999.0,-999,0.00,,,0.19,,2013-02-11 22:22:00,
2013-02-11 17:30:00,45.0,-99.9,-100.00,North,-999,-999.0,-999.0,-999,0.00,,,0.19,,2013-02-11 22:30:00,
2013-02-11 17:53:00,45.0,-99.9,-100.00,North,-999,-999.0,-999.0,-999,0.00,,,0.19,,2013-02-11 22:53:00,
2013-02-11 18:02:00,45.0,-99.9,-100.00,North,-999,-999.0,-999.0,-999,0.00,,,0.19,,2013-02-11 23:02:00,
2013-02-11 18:12:00,45.0,-99.9,-100.00,North,-999,-999.0,-999.0,-999,0.00,,,0.19,,2013-02-11 23:12:00,
2013-02-11 18:22:00,45.0,-99.9,-100.00,North,-999,-999.0,-999.0,-999,0.00,,,0.19,,2013-02-11 23:22:00,
2013-02-11 18:30:00,45.0,-99.9,-100.00,North,-999,-999.0,-999.0,-999,0.00,,,0.19,,2013-02-11 23:30:00,
2013-02-11 18:53:00,45.0,-99.9,-100.00,North,-999,-999.0,-999.0,-999,0.00,,,0.19,,2013-02-11 23:53:00,
2013-02-11 19:02:00,45.0,-99.9,-100.00,North,-999,-999.0,-999.0,-999,0.00,,,0.19,,2013-02-12 00:02:00,
2013-02-11 19:12:00,45.0,-99.9,-100.00,North,-999,-999.0,-999.0,-999,0.00,,,0.19,,2013-02-12 00:12:00,
2013-02-11 19:22:00,45.0,-99.9,-100.00,North,-999,-999.0,-999.0,-999,0.00,,,0.19,,2013-02-12 00:22:00,
2013-02-11 19:30:00,45.0,-99.9,-100.00,North,-999,-999.0,-999.0,-999,0.00,,,-99.99,,2013-02-12 00:30:00,
2013-02-11 20:02:00,45.0,-99.9,-100.00,North,-999,-999.0,-999.0,-999,0.00,,,-99.99,,2013-02-12 01:02:00,
2013-02-11 20:12:00,45.0,-99.9,-100.00,North,-999,-999.0,-999.0,-999,0.00,,,-99.99,,2013-02-12 01:12:00,
2013-02-11 20:22:00,45.0,-99.9,-100.00,North,-999,-999.0,-999.0,-999,0.00,,,-99.99,,2013-02-12 01:22:00,
2013-02-11 21:02:00,44.0,-99.9,-100.00,North,-999,-999.0,-999.0,-999,0.00,,,0.19,,2013-02-12 02:02:00,
2013-02-11 21:12:00,44.0,-99.9,-100.00,North,-999,-999.0,-999.0,-999,0.00,,,0.19,,2013-02-12 02:12:00,
2013-02-11 21:22:00,44.0,-99.9,-100.00,North,-999,-999.0,-999.0,-999,0.00,,,0.19,,2013-02-12 02:22:00,
2013-02-11 21:30:00,43.0,-99.9,-100.00,North,-999,-999.0,-999.0,-999,0.00,,,0.19,,2013-02-12 02:30:00,
2013-02-11 21:32:00,44.0,-99.9,-100.00,North,-999,-999.0,-999.0,-999,0.00,,,0.19,,2013-02-12 02:32:00,
2013-02-11 21:42:00,44.0,-99.9,-100.00,North,-999,-999.0,-999.0,-999,0.00,,,0.19,,2013-02-12 02:42:00,
2013-02-11 21:53:00,43.0,-99.9,-100.00,North,-999,-999.0,-999.0,-999,0.00,,,0.19,,2013-02-12 02:53:00,
2013-02-11 22:02:00,43.0,-99.9,-100.00,North,-999,-999.0,-999.0,-999,0.00,,,0.19,,2013-02-12 03:02:00,
2013-02-11 22:11:00,43.0,-99.9,-100.00,North,-999,-999.0,-999.0,-999,0.00,,,0.19,,2013-02-12 03:11:00,
2013-02-11 22:22:00,43.0,-99.9,-100.00,North,-999,-999.0,-999.0,-999,0.00,,,0.19,,2013-02-12 03:22:00,
2013-02-11 22:30:00,42.0,-99.9,-100.00,North,-999,-999.0,-999.0,-999,0.00,,,0.19,,2013-02-12 03:30:00,
2013-02-11 23:02:00,42.0,-99.9,-100.00,North,-999,-999.0,-999.0,-999,0.00,,,0.19,,2013-02-12 04:02:00,
2013-02-11 23:11:00,42.0,-99.9,-100.00,North,-999,-999.0,-999.0,-999,0.00,,,0.19,,2013-02-12 04:11:00,
2013-02-11 23:22:00,42.0,-99.9,-100.00,North,-999,-999.0,-999.0,-999,0.00,,,0.19,,2013-02-12 04:22:00,
2013-02-11 23:30:00,42.0,-99.9,-100.00,North,-999,-999.0,-999.0,-999,0.00,,,0.19,,2013-02-12 04:30:00,
2013-02-11 23:52:00,42.0,-99.9,-100.00,North,-999,-999.0,-999.0,-999,0.00,,,0.19,,2013-02-12 04:52:00,